Time,TemperatureF,DewpointF,PressureIn,WindDirection,WindDirectionDegrees,WindSpeedMPH,WindSpeedGustMPH,Humidity,HourlyPrecipIn,Conditions,Clouds,dailyrainin,SoftwareType,DateUTC
2013-12-16 00:22:00,22.0,18.0,29.83,WSW,252,15.0,28.0,86,0.00,,,0.06,,2013-12-16 05:22:00,
2013-12-16 00:53:00,21.0,17.0,29.84,WSW,244,14.0,25.0,86,0.00,,,0.06,,2013-12-16 05:53:00,
2013-12-16 01:22:00,20.0,15.0,29.84,WSW,252,14.0,33.0,82,0.00,,,0.06,,2013-12-16 06:22:00,
2013-12-16 01:42:00,20.0,16.0,29.85,WSW,255,12.0,27.0,83,0.00,,,0.06,,2013-12-16 06:42:00,
2013-12-16 01:52:00,19.0,16.0,29.85,WSW,251,14.0,24.0,86,0.00,,,0.06,,2013-12-16 06:52:00,
2013-12-16 02:22:00,19.0,16.0,29.87,WSW,247,12.0,24.0,88,0.00,,,0.06,,2013-12-16 07:22:00,
2013-12-16 02:52:00,19.0,16.0,29.88,West,278,6.0,19.0,89,0.00,,,0.06,,2013-12-16 07:52:00,
2013-12-16 03:22:00,18.0,16.0,29.88,WSW,247,11.0,25.0,91,0.00,,,0.06,,2013-12-16 08:22:00,
2013-12-16 03:42:00,18.0,16.0,29.89,WSW,249,8.0,14.0,91,0.00,,,0.06,,2013-12-16 08:42:00,
2013-12-16 03:52:00,18.0,16.0,29.89,WSW,244,7.0,15.0,91,0.00,,,0.06,,2013-12-16 08:52:00,
2013-12-16 04:22:00,18.0,16.0,29.89,WSW,252,9.0,18.0,91,0.00,,,0.06,,2013-12-16 09:22:00,
2013-12-16 04:53:00,18.0,16.0,29.90,WSW,254,10.0,25.0,91,0.00,,,0.04,,2013-12-16 09:53:00,
2013-12-16 05:23:00,18.0,16.0,29.90,WSW,254,13.0,22.0,91,0.00,,,0.02,,2013-12-16 10:23:00,
2013-12-16 05:43:00,18.0,16.0,29.90,WSW,250,7.0,22.0,91,0.00,,,0.01,,2013-12-16 10:43:00,
2013-12-16 05:52:00,18.0,16.0,29.91,West,261,10.0,23.0,92,0.00,,,0.01,,2013-12-16 10:52:00,
2013-12-16 06:22:00,18.0,16.0,29.93,WSW,249,13.0,26.0,92,0.00,,,0.01,,2013-12-16 11:22:00,
2013-12-16 06:42:00,18.0,16.0,29.93,WSW,253,13.0,26.0,92,0.00,,,0.01,,2013-12-16 11:42:00,
2013-12-16 06:53:00,18.0,16.0,29.94,WSW,256,12.0,21.0,91,0.00,,,0.01,,2013-12-16 11:53:00,
2013-12-16 07:12:00,18.0,16.0,29.95,WSW,249,7.0,14.0,91,0.00,,,0.01,,2013-12-16 12:12:00,
2013-12-16 07:22:00,18.0,16.0,29.95,WSW,249,7.0,14.0,91,0.00,,,0.01,,2013-12-16 12:22:00,
2013-12-16 07:42:00,17.0,15.0,29.94,WSW,238,9.0,14.0,91,0.00,,,0.01,,2013-12-16 12:42:00,
2013-12-16 07:52:00,17.0,15.0,29.94,WSW,253,3.0,14.0,91,0.00,,,0.01,,2013-12-16 12:52:00,
2013-12-16 08:22:00,17.0,15.0,29.95,WSW,258,5.0,15.0,91,0.00,,,0.01,,2013-12-16 13:22:00,
2013-12-16 08:42:00,17.0,15.0,29.96,WSW,243,5.0,11.0,91,0.00,,,0.01,,2013-12-16 13:42:00,
2013-12-16 08:52:00,17.0,15.0,29.97,WSW,242,5.0,11.0,91,0.00,,,0.01,,2013-12-16 13:52:00,
2013-12-16 09:12:00,17.0,15.0,29.97,SW,233,4.0,9.0,90,0.00,,,0.01,,2013-12-16 14:12:00,
2013-12-16 09:22:00,17.0,15.0,29.97,SW,233,4.0,9.0,90,0.00,,,0.01,,2013-12-16 14:22:00,
2013-12-16 09:32:00,17.0,15.0,29.97,SW,233,4.0,9.0,90,0.00,,,0.01,,2013-12-16 14:32:00,
2013-12-16 10:22:00,19.0,17.0,30.00,WSW,241,5.0,11.0,90,0.00,,,0.01,,2013-12-16 15:22:00,
2013-12-16 10:54:00,19.0,16.0,30.00,WSW,250,7.0,13.0,89,0.00,,,0.01,,2013-12-16 15:54:00,
2013-12-16 11:13:00,20.0,17.0,30.01,WSW,245,10.0,16.0,88,0.00,,,0.01,,2013-12-16 16:13:00,
2013-12-16 11:23:00,20.0,17.0,30.01,WSW,245,10.0,16.0,88,0.00,,,0.01,,2013-12-16 16:23:00,
2013-12-16 11:53:00,21.0,17.0,30.00,WSW,255,8.0,18.0,86,0.00,,,0.01,,2013-12-16 16:53:00,
2013-12-16 12:22:00,21.0,17.0,29.99,WSW,257,5.0,14.0,85,0.00,,,0.01,,2013-12-16 17:22:00,
2013-12-16 12:52:00,21.0,17.0,29.99,WSW,255,10.0,17.0,83,0.00,,,0.00,,2013-12-16 17:52:00,
2013-12-16 13:02:00,21.0,17.0,29.99,WSW,255,10.0,17.0,83,0.00,,,0.00,,2013-12-16 18:02:00,
2013-12-16 13:12:00,21.0,17.0,29.99,WSW,255,10.0,17.0,83,0.00,,,0.00,,2013-12-16 18:12:00,
2013-12-16 13:22:00,21.0,17.0,29.99,WSW,255,10.0,17.0,83,0.00,,,0.00,,2013-12-16 18:22:00,
2013-12-16 13:42:00,21.0,17.0,29.99,WSW,246,7.0,14.0,84,0.00,,,0.00,,2013-12-16 18:42:00,
2013-12-16 13:52:00,21.0,17.0,29.98,WSW,250,3.0,11.0,83,0.00,,,0.00,,2013-12-16 18:52:00,
2013-12-16 14:22:00,22.0,18.0,29.98,WSW,248,7.0,11.0,83,0.00,,,0.00,,2013-12-16 19:22:00,
2013-12-16 14:52:00,22.0,18.0,29.98,West,262,5.0,11.0,84,0.00,,,0.00,,2013-12-16 19:52:00,
2013-12-16 15:22:00,22.0,18.0,29.98,WSW,253,5.0,8.0,84,0.00,,,0.00,,2013-12-16 20:22:00,
2013-12-16 15:53:00,22.0,18.0,29.98,WSW,242,2.0,8.0,85,0.00,,,0.00,,2013-12-16 20:53:00,
2013-12-16 16:22:00,23.0,19.0,29.99,WSW,249,3.0,6.0,85,0.00,,,0.00,,2013-12-16 21:22:00,
2013-12-16 16:54:00,23.0,19.0,30.00,WSW,250,1.0,4.0,86,0.00,,,0.00,,2013-12-16 21:54:00,
2013-12-16 17:23:00,23.0,19.0,30.00,North,0,0.0,2.0,86,0.00,,,0.00,,2013-12-16 22:23:00,
2013-12-16 17:53:00,23.0,20.0,30.00,North,0,0.0,0.0,87,0.00,,,0.00,,2013-12-16 22:53:00,
2013-12-16 18:02:00,23.0,20.0,30.00,North,0,0.0,0.0,87,0.00,,,0.00,,2013-12-16 23:02:00,
2013-12-16 18:22:00,23.0,21.0,30.01,North,0,0.0,0.0,90,0.00,,,0.00,,2013-12-16 23:22:00,
2013-12-16 18:53:00,23.0,21.0,30.01,North,0,0.0,0.0,92,0.00,,,0.00,,2013-12-16 23:53:00,
2013-12-16 19:02:00,23.0,21.0,30.01,North,0,0.0,0.0,92,0.00,,,0.00,,2013-12-17 00:02:00,
2013-12-16 19:22:00,23.0,21.0,30.01,North,0,0.0,2.0,93,0.00,,,0.00,,2013-12-17 00:22:00,
2013-12-16 19:52:00,23.0,22.0,30.01,North,0,0.0,1.0,94,0.00,,,0.00,,2013-12-17 00:52:00,
2013-12-16 20:22:00,23.0,22.0,30.01,North,0,0.0,3.0,95,0.00,,,0.00,,2013-12-17 01:22:00,
2013-12-16 20:52:00,24.0,23.0,30.01,North,0,0.0,0.0,95,0.00,,,0.00,,2013-12-17 01:52:00,
2013-12-16 21:22:00,24.0,23.0,30.00,North,0,0.0,0.0,95,0.00,,,0.00,,2013-12-17 02:22:00,
2013-12-16 21:42:00,24.0,23.0,30.00,North,0,0.0,0.0,95,0.00,,,0.00,,2013-12-17 02:42:00,
2013-12-16 21:52:00,24.0,23.0,29.99,North,0,0.0,0.0,95,0.00,,,0.00,,2013-12-17 02:52:00,
2013-12-16 22:22:00,25.0,24.0,29.99,North,0,0.0,0.0,95,0.00,,,0.00,,2013-12-17 03:22:00,
2013-12-16 22:53:00,25.0,24.0,29.99,North,0,0.0,0.0,95,0.00,,,0.00,,2013-12-17 03:53:00,
2013-12-16 23:23:00,25.0,24.0,29.98,North,0,0.0,3.0,94,0.00,,,0.00,,2013-12-17 04:23:00,
2013-12-16 23:43:00,25.0,23.0,29.98,North,0,0.0,4.0,93,0.00,,,0.00,,2013-12-17 04:43:00,
2013-12-16 23:53:00,25.0,23.0,29.98,North,0,0.0,4.0,93,0.00,,,0.00,,2013-12-17 04:53:00,